Вернуться в каталог

QIANFAN-153

АктивенСвязьPO
NORAD 69112·PAYLOAD·🇨🇳 China

Запущен May 17, 2026 с Wenchang Space Launch Site

Loading…

Ближайшие Пролёты (ближайшие 24 часа)

TLE

СвежийSource: Space-Track

Эпоха: Sep 14, 2026, 21:59 UTC

1 69112U 26108J   26257.91600964  .00000105  00000-0  14452-3 0  9998
2 69112  89.0182  13.0489 0002219 104.8308 255.3090 13.51023975 16560

Отслеживайте QIANFAN-153 в реальном времени с AllMySat

Download on the App Store